Regional Weather Roundup
Issued by NWS

Home | Current Version | Previous Version | Text Only | Print | Product List | Glossary On
Versions: 1 2 3 4 5 6 7 8 9 10 11 12 13 14 15 16 17 18 19 20 21 22 23 24 25 26 27
000
ASUS45 KTFX 291510
RWRMT
MONTANA REGIONAL WEATHER ROUNDUP
NATIONAL WEATHER SERVICE GREAT FALLS MT
900 AM MDT SUN MAY 29 2016

NOTE: "FAIR" INDICATES FEW OR NO CLOUDS BELOW 12000 FEET WITH NO
SIGNIFICANT WEATHER AND/OR OBSTRUCTIONS TO VISIBILITY.

MTZ001>007-043-291600-
WEST OF THE DIVIDE

CITY           SKY/WX    TMP DP  RH WIND       PRES   REMARKS
KALISPELL      MOSUNNY   49  41  74 CALM      30.04F
MISSOULA       MOSUNNY   47  38  71 CALM      30.09F
BUTTE          SUNNY     46  33  60 CALM      30.13S
MULLAN PASS    SUNNY     46  33  60 VRB3      30.07R
ANACONDA         N/A     52  36  54 SE8       30.09F
DEER LODGE       N/A     48  37  66 CALM      30.10F
EUREKA           N/A     50  37  62 S5        30.04S
HAMILTON         N/A     52  36  54 SE3       30.08S
LIBBY            N/A     46  37  71 N3        30.04S
$$

MTZ008-052>055-291600-
SOUTHWEST MONTANA

CITY           SKY/WX    TMP DP  RH WIND       PRES   REMARKS
BOZEMAN        SUNNY     54  43  66 CALM      30.11S
DILLON         SUNNY     50  37  61 SW6       30.11F
W YELLOWSTONE  SUNNY     39  32  75 CALM      30.21F
ENNIS          SUNNY     52  36  54 CALM      30.17F
$$

MTZ009-010-012-014-046-048-049-054-291600-
EAST SLOPES AND CENTRAL MONTANA

CITY           SKY/WX    TMP DP  RH WIND       PRES   REMARKS
CUT BANK       MOSUNNY   54  34  46 SW18      29.99S
GREAT FALLS    SUNNY     59  38  45 SW12      30.03S
MALMSTROM AFB  SUNNY     60  38  45 SW12      30.03R
HELENA         SUNNY     51  38  60 CALM      30.08S
CHOTEAU          N/A     54  36  50 SW7       30.02F
$$

MTZ011-013-016-021-045-047-050-051-291600-
NORTH CENTRAL MONTANA

CITY           SKY/WX    TMP DP  RH WIND       PRES   REMARKS
HAVRE          SUNNY     57  40  52 SW15      29.99S
LEWISTOWN      SUNNY     59  39  47 CALM      30.06S
N BAR RANCH      N/A     61  32  33 NW12      30.08S
CHINOOK          N/A     55  43  62 NE3       30.00S
$$

MTZ017>020-022>027-061-062-291600-
NORTHEAST MONTANA

CITY           SKY/WX    TMP DP  RH WIND       PRES   REMARKS
GLASGOW        SUNNY     57  39  51 W5        30.01S
JORDAN           N/A     59  41  51 W3        30.03S
SIDNEY         SUNNY     61  48  63 S7        30.02F
WOLF POINT     SUNNY     59  45  59 SW6       30.02F
PLENTYWOOD       N/A     57  45  62 W5        30.00S
POPLAR           N/A     57  41  54 SW7       30.03S
$$

MTZ028>42-056>058-291600-
SOUTHCENTRAL AND SOUTHEAST MONTANA

CITY           SKY/WX    TMP DP  RH WIND       PRES   REMARKS
BAKER          SUNNY     65  44  46 W10       30.06S
BILLINGS       MOSUNNY   55  44  66 SW5       30.07S
LIVINGSTON     SUNNY     58  36  43 W13       30.08F
MILES CITY     SUNNY     58  45  62 S3        30.04F
FORSYTH          N/A     61  46  59 CALM      30.04F
$$

REGIONAL REPORTS...DAKOTAS

CITY           SKY/WX    TMP DP  RH WIND       PRES   REMARKS
WILLISTON      SUNNY     62  45  53 W7        30.01F
MINOT          SUNNY     69  49  48 W15       29.97S
DICKINSON      SUNNY     63  40  42 W8        30.04S
BEACH            N/A     64  39  39 SW5       30.07F
CROSBY           N/A     63  48  59 W15       30.00S
WATFORD CITY     N/A     63  45  51 W9        30.03S
BISMARCK       SUNNY     64  57  78 SW6       30.03S
GRAND FORKS    PTSUNNY   64  56  75 NW12      29.93S
FARGO          CLOUDY    67  58  72 NW10      29.94R
BUFFALO SD       N/A     65  47  52 VRB3      30.01S
RAPID CITY     CLOUDY    63  48  58 W3        30.11R
$$

REGIONAL REPORTS...WYOMING/IDAHO/WASHINGTON

CITY           SKY/WX    TMP DP  RH WIND       PRES   REMARKS
GILLETTE       PTSUNNY   60  47  61 S5        30.11R
SHERIDAN       SUNNY     62  47  57 CALM      30.09R
BUFFALO WY     SUNNY     61  45  55 S15       30.13S
CODY           SUNNY     61  36  39 S7        30.11S
YELLOWSTONE LA   N/A     39  29  67 CALM      30.27S
IDAHO FALLS    SUNNY     50  38  63 N6        30.15R
SALMON         SUNNY     48  37  66 CALM      30.12S
BOISE          SUNNY     62  33  33 SE13      30.05R
SPOKANE        PTSUNNY   56  41  57 S8        29.99S
$$

REGIONAL REPORTS...ALBERTA

CITY           SKY/WX    TMP DP  RH WIND       PRES   REMARKS
EDMONTON       SUNNY     55  46  71 E7        29.85R
CALGARY        MOSUNNY   57  30  35 W5        29.87S
LETHBRIDGE     MOSUNNY   59  37  44 W21G29    29.93S
MEDICINE HAT   MOSUNNY   59  39  47 SW16      29.91S
$$

REGIONAL REPORTS...SASKATCHEWAN

CITY           SKY/WX    TMP DP  RH WIND       PRES   REMARKS
SWIFT CURRENT  PTSUNNY   57  45  62 SW14      29.93R
REGINA         SUNNY     57  48  72 SW9       29.94S
SASKATOON      MOSUNNY   57  50  77 W5        29.90S
$$




USA.gov is the U.S. government's official web portal to all federal, state and local government web resources and services.